カタログに戻る

STARLINK-34362

運用中通信VLEO
NORAD 64292·PAYLOAD·🇺🇸 United States

打ち上げ Jun 8, 2025 から Vandenberg Space Force Base

Loading…

次のパス (今後24時間)

TLE

最新Source: CelesTrak SupGP

元期: Sep 14, 2026, 23:07 UTC

1 64292C 25123B   26257.96368056  .00028859  00000+0  10039-2 0  2574
2 64292  69.9999  75.7478 0003324 272.8637 216.7708 15.29564518    19

AllMySatでSTARLINK-34362をリアルタイム追跡

Download on the App Store